Time,TemperatureF,DewpointF,PressureIn,WindDirection,WindDirectionDegrees,WindSpeedMPH,WindSpeedGustMPH,Humidity,HourlyPrecipIn,Conditions,Clouds,dailyrainin,SoftwareType,DateUTC
2013-04-23 00:01:00,41.5,39.7,29.92,NW,326,4.0,-999.0,91,0.00,,,0.00,Custom/Perl,2013-04-23 05:01:00,
2013-04-23 00:06:00,41.3,39.7,29.92,NW,314,7.0,-999.0,92,0.00,,,0.01,Custom/Perl,2013-04-23 05:06:00,
2013-04-23 00:11:00,40.9,39.1,29.91,WNW,290,7.0,-999.0,91,0.10,,,0.02,Custom/Perl,2013-04-23 05:11:00,
2013-04-23 00:16:00,40.6,38.8,29.91,NNW,327,4.0,-999.0,91,0.07,,,0.02,Custom/Perl,2013-04-23 05:16:00,
2013-04-23 00:22:00,40.3,38.5,29.92,NE,41,8.0,-999.0,91,0.04,,,0.02,Custom/Perl,2013-04-23 05:22:00,
2013-04-23 00:27:00,40.1,38.5,29.92,NNW,343,5.0,-999.0,92,0.00,,,0.02,Custom/Perl,2013-04-23 05:27:00,
2013-04-23 00:32:00,40.1,38.5,29.93,NNW,337,8.0,-999.0,92,0.00,,,0.02,Custom/Perl,2013-04-23 05:32:00,
2013-04-23 00:37:00,39.9,38.3,29.96,NW,325,11.0,-999.0,92,0.00,,,0.03,Custom/Perl,2013-04-23 05:37:00,
2013-04-23 00:42:00,39.7,37.9,29.97,WNW,288,8.0,-999.0,91,0.00,,,0.03,Custom/Perl,2013-04-23 05:42:00,
2013-04-23 00:48:00,39.5,37.7,29.98,NNW,333,17.0,-999.0,91,0.00,,,0.03,Custom/Perl,2013-04-23 05:48:00,
2013-04-23 00:53:00,39.4,37.6,29.97,NW,316,6.0,-999.0,91,0.00,,,0.03,Custom/Perl,2013-04-23 05:53:00,
2013-04-23 00:58:00,39.2,37.4,29.94,NW,310,5.0,-999.0,91,0.00,,,0.03,Custom/Perl,2013-04-23 05:58:00,
2013-04-23 01:03:00,39.0,37.4,29.92,ENE,61,4.0,-999.0,92,0.00,,,0.04,Custom/Perl,2013-04-23 06:03:00,
2013-04-23 01:09:00,38.8,37.2,29.91,NNE,25,4.0,-999.0,92,0.00,,,0.04,Custom/Perl,2013-04-23 06:09:00,
2013-04-23 01:14:00,38.7,37.1,29.91,NNW,347,5.0,-999.0,92,0.00,,,0.04,Custom/Perl,2013-04-23 06:14:00,
2013-04-23 01:19:00,38.5,36.9,29.91,NNW,333,5.0,-999.0,92,0.00,,,0.04,Custom/Perl,2013-04-23 06:19:00,
2013-04-23 01:24:00,38.3,36.7,29.89,NW,316,4.0,-999.0,92,0.00,,,0.04,Custom/Perl,2013-04-23 06:24:00,
2013-04-23 01:29:00,38.2,36.6,29.91,NW,316,7.0,-999.0,92,0.00,,,0.04,Custom/Perl,2013-04-23 06:29:00,
2013-04-23 01:34:00,38.1,36.7,29.91,NW,322,3.0,-999.0,93,0.00,,,0.04,Custom/Perl,2013-04-23 06:34:00,
2013-04-23 01:40:00,38.1,36.7,29.93,NNE,29,4.0,-999.0,93,0.00,,,0.04,Custom/Perl,2013-04-23 06:40:00,
2013-04-23 01:45:00,38.1,36.5,29.94,WSW,254,2.0,-999.0,92,0.00,,,0.04,Custom/Perl,2013-04-23 06:45:00,
2013-04-23 01:50:00,38.1,36.5,29.95,NNW,339,5.0,-999.0,92,0.00,,,0.04,Custom/Perl,2013-04-23 06:50:00,
2013-04-23 01:55:00,38.0,36.4,29.95,West,274,3.0,-999.0,92,0.00,,,0.04,Custom/Perl,2013-04-23 06:55:00,
2013-04-23 02:00:00,38.0,36.4,29.94,NNW,336,3.0,-999.0,92,0.00,,,0.04,Custom/Perl,2013-04-23 07:00:00,
2013-04-23 02:06:00,37.9,36.5,29.94,NNW,333,1.0,-999.0,93,0.00,,,0.04,Custom/Perl,2013-04-23 07:06:00,
2013-04-23 02:11:00,37.8,36.4,29.95,WNW,295,5.0,-999.0,93,0.00,,,0.04,Custom/Perl,2013-04-23 07:11:00,
2013-04-23 02:16:00,37.6,36.0,29.94,WNW,284,4.0,-999.0,92,0.00,,,0.05,Custom/Perl,2013-04-23 07:16:00,
2013-04-23 02:21:00,37.4,35.8,29.94,West,276,8.0,-999.0,92,0.00,,,0.05,Custom/Perl,2013-04-23 07:21:00,
2013-04-23 02:26:00,37.2,35.6,29.94,NNW,336,5.0,-999.0,92,0.06,,,0.06,Custom/Perl,2013-04-23 07:26:00,
2013-04-23 02:32:00,36.9,35.3,29.94,WNW,300,5.0,-999.0,92,0.06,,,0.06,Custom/Perl,2013-04-23 07:32:00,
2013-04-23 02:37:00,36.5,34.9,29.93,West,262,8.0,-999.0,92,0.05,,,0.06,Custom/Perl,2013-04-23 07:37:00,
2013-04-23 02:42:00,36.3,34.5,29.95,North,354,9.0,-999.0,91,0.05,,,0.07,Custom/Perl,2013-04-23 07:42:00,
2013-04-23 02:47:00,36.1,34.5,29.95,NNE,17,5.0,-999.0,92,0.05,,,0.07,Custom/Perl,2013-04-23 07:47:00,
2013-04-23 02:52:00,36.0,34.4,29.95,North,1,9.0,-999.0,92,0.05,,,0.08,Custom/Perl,2013-04-23 07:52:00,
2013-04-23 02:58:00,35.9,34.3,29.93,North,356,9.0,-999.0,92,0.12,,,0.09,Custom/Perl,2013-04-23 07:58:00,
2013-04-23 03:03:00,35.7,34.1,29.92,North,357,10.0,-999.0,92,0.15,,,0.11,Custom/Perl,2013-04-23 08:03:00,
2013-04-23 03:08:00,35.6,34.0,29.92,North,2,9.0,-999.0,92,0.12,,,0.12,Custom/Perl,2013-04-23 08:08:00,
2013-04-23 03:13:00,35.5,34.1,29.92,NW,326,5.0,-999.0,93,0.09,,,0.12,Custom/Perl,2013-04-23 08:13:00,
2013-04-23 03:19:00,35.5,34.1,29.92,North,354,4.0,-999.0,93,0.06,,,0.13,Custom/Perl,2013-04-23 08:19:00,
2013-04-23 03:24:00,35.4,34.0,29.92,NNW,338,10.0,-999.0,93,0.06,,,0.13,Custom/Perl,2013-04-23 08:24:00,
2013-04-23 03:29:00,35.4,34.0,29.92,NW,315,3.0,-999.0,93,0.05,,,0.13,Custom/Perl,2013-04-23 08:29:00,
2013-04-23 03:34:00,35.4,34.0,29.92,NNW,331,8.0,-999.0,93,0.04,,,0.14,Custom/Perl,2013-04-23 08:34:00,
2013-04-23 03:39:00,35.4,34.0,29.92,WNW,283,4.0,-999.0,93,0.04,,,0.14,Custom/Perl,2013-04-23 08:39:00,
2013-04-23 03:45:00,35.3,33.9,29.93,NNW,328,3.0,-999.0,93,0.05,,,0.15,Custom/Perl,2013-04-23 08:45:00,
2013-04-23 03:50:00,35.3,33.7,29.95,North,4,3.0,-999.0,92,0.05,,,0.15,Custom/Perl,2013-04-23 08:50:00,
2013-04-23 03:55:00,35.2,33.8,29.96,North,352,4.0,-999.0,93,0.05,,,0.16,Custom/Perl,2013-04-23 08:55:00,
2013-04-23 04:00:00,35.2,33.8,29.96,NNW,333,9.0,-999.0,93,0.09,,,0.17,Custom/Perl,2013-04-23 09:00:00,
2013-04-23 04:05:00,35.1,33.7,29.96,NNW,342,8.0,-999.0,93,0.15,,,0.18,Custom/Perl,2013-04-23 09:05:00,
2013-04-23 04:11:00,34.9,33.5,29.96,NW,324,7.0,-999.0,93,0.16,,,0.19,Custom/Perl,2013-04-23 09:11:00,
2013-04-23 04:16:00,34.7,33.3,29.96,NNW,335,7.0,-999.0,93,0.12,,,0.20,Custom/Perl,2013-04-23 09:16:00,
2013-04-23 04:21:00,34.7,33.3,29.95,North,1,6.0,-999.0,93,0.14,,,0.22,Custom/Perl,2013-04-23 09:21:00,
2013-04-23 04:26:00,34.6,33.0,29.95,NE,54,8.0,-999.0,92,0.10,,,0.22,Custom/Perl,2013-04-23 09:26:00,
2013-04-23 04:31:00,34.5,32.9,29.95,NNW,336,7.0,-999.0,92,0.06,,,0.23,Custom/Perl,2013-04-23 09:31:00,
2013-04-23 04:37:00,34.4,32.8,29.94,WNW,293,7.0,-999.0,92,0.06,,,0.23,Custom/Perl,2013-04-23 09:37:00,
2013-04-23 04:42:00,34.4,33.0,29.92,North,354,4.0,-999.0,93,0.07,,,0.24,Custom/Perl,2013-04-23 09:42:00,
2013-04-23 04:47:00,34.3,32.9,29.92,NW,323,3.0,-999.0,93,0.13,,,0.25,Custom/Perl,2013-04-23 09:47:00,
2013-04-23 04:52:00,34.2,32.8,29.92,NNE,26,7.0,-999.0,93,0.17,,,0.27,Custom/Perl,2013-04-23 09:52:00,
2013-04-23 04:58:00,34.1,32.7,29.92,NW,320,6.0,-999.0,93,0.10,,,0.28,Custom/Perl,2013-04-23 09:58:00,
2013-04-23 05:03:00,34.0,32.6,29.93,East,95,6.0,-999.0,93,0.10,,,0.28,Custom/Perl,2013-04-23 10:03:00,
2013-04-23 05:08:00,34.0,32.6,29.93,WNW,282,5.0,-999.0,93,0.05,,,0.28,Custom/Perl,2013-04-23 10:08:00,
2013-04-23 05:13:00,34.0,32.6,29.93,NW,309,4.0,-999.0,93,0.04,,,0.29,Custom/Perl,2013-04-23 10:13:00,
2013-04-23 05:18:00,34.0,32.6,29.93,NNW,335,5.0,-999.0,93,0.04,,,0.29,Custom/Perl,2013-04-23 10:18:00,
2013-04-23 05:24:00,34.1,32.7,29.93,ENE,63,5.0,-999.0,93,0.09,,,0.30,Custom/Perl,2013-04-23 10:24:00,
2013-04-23 05:29:00,34.1,32.7,29.94,North,352,3.0,-999.0,93,0.09,,,0.31,Custom/Perl,2013-04-23 10:29:00,
2013-04-23 05:34:00,34.0,32.6,29.93,NW,321,6.0,-999.0,93,0.15,,,0.32,Custom/Perl,2013-04-23 10:34:00,
2013-04-23 05:39:00,34.0,32.6,29.94,NNE,32,8.0,-999.0,93,0.13,,,0.33,Custom/Perl,2013-04-23 10:39:00,
2013-04-23 05:44:00,34.0,32.6,29.94,NNW,347,6.0,-999.0,93,0.09,,,0.34,Custom/Perl,2013-04-23 10:44:00,
2013-04-23 05:50:00,34.0,32.6,29.93,WNW,290,4.0,-999.0,93,0.07,,,0.34,Custom/Perl,2013-04-23 10:50:00,
2013-04-23 05:55:00,34.0,32.6,29.92,NNW,342,7.0,-999.0,93,0.04,,,0.34,Custom/Perl,2013-04-23 10:55:00,
2013-04-23 06:00:00,34.1,32.7,29.93,NE,51,4.0,-999.0,93,0.00,,,0.34,Custom/Perl,2013-04-23 11:00:00,
2013-04-23 06:05:00,34.1,32.7,29.92,WSW,253,7.0,-999.0,93,0.00,,,0.34,Custom/Perl,2013-04-23 11:05:00,
2013-04-23 06:11:00,34.0,32.6,29.92,NW,304,10.0,-999.0,93,0.00,,,0.34,Custom/Perl,2013-04-23 11:11:00,
2013-04-23 06:16:00,34.0,32.4,29.92,NNE,32,9.0,-999.0,92,0.00,,,0.34,Custom/Perl,2013-04-23 11:16:00,
2013-04-23 06:21:00,34.0,32.4,29.92,North,353,7.0,-999.0,92,0.00,,,0.34,Custom/Perl,2013-04-23 11:21:00,
2013-04-23 06:26:00,34.0,32.4,29.91,West,278,8.0,-999.0,92,0.00,,,0.34,Custom/Perl,2013-04-23 11:26:00,
2013-04-23 06:31:00,34.0,32.4,29.91,WNW,295,4.0,-999.0,92,0.00,,,0.34,Custom/Perl,2013-04-23 11:31:00,
2013-04-23 06:37:00,34.1,32.5,29.92,West,278,2.0,-999.0,92,0.00,,,0.34,Custom/Perl,2013-04-23 11:37:00,
2013-04-23 06:42:00,34.1,32.5,29.94,NW,304,5.0,-999.0,92,0.00,,,0.34,Custom/Perl,2013-04-23 11:42:00,
2013-04-23 06:47:00,34.1,32.5,29.94,NNE,25,4.0,-999.0,92,0.00,,,0.34,Custom/Perl,2013-04-23 11:47:00,
2013-04-23 06:52:00,34.1,32.5,29.94,NW,308,3.0,-999.0,92,0.00,,,0.34,Custom/Perl,2013-04-23 11:52:00,
2013-04-23 06:58:00,34.2,32.6,29.95,NNE,27,4.0,-999.0,92,0.00,,,0.34,Custom/Perl,2013-04-23 11:58:00,
2013-04-23 07:03:00,34.1,32.5,29.98,NW,322,5.0,-999.0,92,0.00,,,0.34,Custom/Perl,2013-04-23 12:03:00,
2013-04-23 07:08:00,34.0,32.4,29.94,NW,313,3.0,-999.0,92,0.00,,,0.34,Custom/Perl,2013-04-23 12:08:00,
2013-04-23 07:13:00,33.9,32.3,29.94,WNW,298,4.0,-999.0,92,0.00,,,0.34,Custom/Perl,2013-04-23 12:13:00,
2013-04-23 07:18:00,33.8,32.2,29.94,ENE,58,5.0,-999.0,92,0.22,,,0.36,Custom/Perl,2013-04-23 12:18:00,
2013-04-23 07:24:00,33.7,32.3,29.94,East,96,6.0,-999.0,93,0.11,,,0.37,Custom/Perl,2013-04-23 12:24:00,
2013-04-23 07:29:00,33.6,32.2,29.96,NW,306,5.0,-999.0,93,0.17,,,0.38,Custom/Perl,2013-04-23 12:29:00,
2013-04-23 07:34:00,33.5,32.1,29.97,NNW,333,11.0,-999.0,93,0.12,,,0.39,Custom/Perl,2013-04-23 12:34:00,
2013-04-23 07:39:00,33.3,31.9,29.97,NNW,333,2.0,-999.0,93,0.12,,,0.40,Custom/Perl,2013-04-23 12:39:00,
2013-04-23 07:44:00,33.2,31.6,29.97,East,80,5.0,-999.0,92,0.13,,,0.41,Custom/Perl,2013-04-23 12:44:00,
2013-04-23 07:50:00,33.2,31.8,29.95,NNW,332,5.0,-999.0,93,0.12,,,0.42,Custom/Perl,2013-04-23 12:50:00,
2013-04-23 07:55:00,33.1,31.7,29.96,NNE,31,4.0,-999.0,93,0.11,,,0.43,Custom/Perl,2013-04-23 12:55:00,
2013-04-23 08:00:00,33.0,31.8,29.97,NW,323,6.0,-999.0,94,0.07,,,0.44,Custom/Perl,2013-04-23 13:00:00,
2013-04-23 08:05:00,33.0,31.6,29.99,North,355,3.0,-999.0,93,0.07,,,0.44,Custom/Perl,2013-04-23 13:05:00,
2013-04-23 08:10:00,33.0,31.6,30.01,NW,326,5.0,-999.0,93,0.05,,,0.44,Custom/Perl,2013-04-23 13:10:00,
2013-04-23 08:16:00,32.9,31.5,30.02,ESE,121,3.0,-999.0,93,0.04,,,0.44,Custom/Perl,2013-04-23 13:16:00,
2013-04-23 08:21:00,32.9,31.5,30.01,NW,313,8.0,-999.0,93,0.00,,,0.44,Custom/Perl,2013-04-23 13:21:00,
2013-04-23 08:26:00,32.7,31.5,30.01,NW,305,2.0,-999.0,94,0.00,,,0.44,Custom/Perl,2013-04-23 13:26:00,
2013-04-23 08:31:00,32.6,31.4,30.01,NW,323,6.0,-999.0,94,0.00,,,0.44,Custom/Perl,2013-04-23 13:31:00,
2013-04-23 08:36:00,32.4,31.2,30.00,WNW,302,4.0,-999.0,94,0.00,,,0.44,Custom/Perl,2013-04-23 13:36:00,
2013-04-23 08:42:00,32.3,31.1,29.98,NW,309,5.0,-999.0,94,0.00,,,0.44,Custom/Perl,2013-04-23 13:42:00,
2013-04-23 08:47:00,32.3,31.1,29.98,NNE,30,5.0,-999.0,94,0.00,,,0.44,Custom/Perl,2013-04-23 13:47:00,
2013-04-23 08:52:00,32.2,31.0,29.99,NNW,330,7.0,-999.0,94,0.00,,,0.44,Custom/Perl,2013-04-23 13:52:00,
2013-04-23 08:57:00,32.2,31.0,29.97,NW,319,4.0,-999.0,94,0.00,,,0.44,Custom/Perl,2013-04-23 13:57:00,
2013-04-23 09:02:00,32.3,31.1,29.98,NW,326,3.0,-999.0,94,0.00,,,0.44,Custom/Perl,2013-04-23 14:02:00,
2013-04-23 09:08:00,32.3,31.1,29.98,North,2,2.0,-999.0,94,0.00,,,0.44,Custom/Perl,2013-04-23 14:08:00,
2013-04-23 09:13:00,32.3,31.1,29.98,NNE,32,2.0,-999.0,94,0.00,,,0.44,Custom/Perl,2013-04-23 14:13:00,
2013-04-23 09:18:00,32.2,31.0,29.98,NW,326,2.0,-999.0,94,0.00,,,0.44,Custom/Perl,2013-04-23 14:18:00,
2013-04-23 09:23:00,32.3,31.1,29.98,NNW,330,3.0,-999.0,94,0.00,,,0.44,Custom/Perl,2013-04-23 14:23:00,
2013-04-23 09:29:00,32.3,31.1,29.98,NNE,12,2.0,-999.0,94,0.00,,,0.44,Custom/Perl,2013-04-23 14:29:00,
2013-04-23 09:34:00,32.2,30.8,29.99,NW,314,6.0,-999.0,93,0.00,,,0.44,Custom/Perl,2013-04-23 14:34:00,
2013-04-23 09:39:00,32.3,30.9,29.99,NW,326,6.0,-999.0,93,0.00,,,0.44,Custom/Perl,2013-04-23 14:39:00,
2013-04-23 09:44:00,32.2,30.8,29.99,NW,316,5.0,-999.0,93,0.00,,,0.44,Custom/Perl,2013-04-23 14:44:00,
2013-04-23 09:49:00,32.2,30.8,29.99,NW,324,3.0,-999.0,93,0.00,,,0.44,Custom/Perl,2013-04-23 14:49:00,
2013-04-23 09:54:00,32.2,30.8,29.98,NNE,21,6.0,-999.0,93,0.00,,,0.44,Custom/Perl,2013-04-23 14:54:00,
2013-04-23 10:00:00,32.2,30.8,29.98,North,8,4.0,-999.0,93,0.00,,,0.44,Custom/Perl,2013-04-23 15:00:00,
2013-04-23 10:05:00,32.3,30.9,29.98,NE,55,6.0,-999.0,93,0.00,,,0.44,Custom/Perl,2013-04-23 15:05:00,
2013-04-23 10:10:00,32.3,30.7,29.98,NW,325,6.0,-999.0,92,0.00,,,0.44,Custom/Perl,2013-04-23 15:10:00,
2013-04-23 10:15:00,32.3,30.7,29.98,ENE,63,4.0,-999.0,92,0.00,,,0.44,Custom/Perl,2013-04-23 15:15:00,
2013-04-23 10:21:00,32.3,30.7,29.98,NW,305,5.0,-999.0,92,0.00,,,0.44,Custom/Perl,2013-04-23 15:21:00,
2013-04-23 10:26:00,32.3,30.7,29.98,NE,53,7.0,-999.0,92,0.00,,,0.44,Custom/Perl,2013-04-23 15:26:00,
2013-04-23 10:31:00,32.3,30.7,29.99,NW,319,6.0,-999.0,92,0.00,,,0.44,Custom/Perl,2013-04-23 15:31:00,
2013-04-23 10:36:00,32.2,30.8,29.98,North,355,9.0,-999.0,93,0.00,,,0.44,Custom/Perl,2013-04-23 15:36:00,
2013-04-23 10:41:00,32.2,30.8,29.99,NNE,17,5.0,-999.0,93,0.00,,,0.44,Custom/Perl,2013-04-23 15:41:00,
2013-04-23 10:47:00,32.3,30.7,29.99,NW,321,4.0,-999.0,92,0.00,,,0.44,Custom/Perl,2013-04-23 15:47:00,
2013-04-23 10:52:00,32.3,30.7,29.99,WNW,285,2.0,-999.0,92,0.00,,,0.44,Custom/Perl,2013-04-23 15:52:00,
2013-04-23 10:57:00,32.3,30.7,29.99,NNW,335,5.0,-999.0,92,0.00,,,0.44,Custom/Perl,2013-04-23 15:57:00,
2013-04-23 11:02:00,32.3,30.7,30.00,WSW,257,3.0,-999.0,92,0.00,,,0.44,Custom/Perl,2013-04-23 16:02:00,
2013-04-23 11:07:00,32.3,30.9,30.00,NNE,30,2.0,-999.0,93,0.00,,,0.44,Custom/Perl,2013-04-23 16:07:00,
2013-04-23 11:13:00,32.3,30.7,30.00,WNW,303,4.0,-999.0,92,0.00,,,0.44,Custom/Perl,2013-04-23 16:13:00,
2013-04-23 11:18:00,32.2,30.6,30.00,NW,321,10.0,-999.0,92,0.00,,,0.44,Custom/Perl,2013-04-23 16:18:00,
2013-04-23 11:23:00,32.2,30.8,30.01,West,274,5.0,-999.0,93,0.00,,,0.44,Custom/Perl,2013-04-23 16:23:00,
2013-04-23 11:28:00,32.2,30.8,30.00,NNW,335,3.0,-999.0,93,0.00,,,0.44,Custom/Perl,2013-04-23 16:28:00,
2013-04-23 11:33:00,32.2,30.6,30.00,NNE,18,6.0,-999.0,92,0.00,,,0.44,Custom/Perl,2013-04-23 16:33:00,
2013-04-23 11:39:00,32.2,30.8,30.00,NW,312,2.0,-999.0,93,0.00,,,0.44,Custom/Perl,2013-04-23 16:39:00,
2013-04-23 11:44:00,32.3,30.9,30.00,NNW,331,4.0,-999.0,93,0.00,,,0.44,Custom/Perl,2013-04-23 16:44:00,
2013-04-23 11:49:00,32.2,30.6,30.00,NNW,332,5.0,-999.0,92,0.00,,,0.44,Custom/Perl,2013-04-23 16:49:00,
2013-04-23 11:54:00,32.2,30.8,30.00,East,80,5.0,-999.0,93,0.00,,,0.44,Custom/Perl,2013-04-23 16:54:00,
2013-04-23 12:00:00,32.1,30.5,30.00,NW,321,4.0,-999.0,92,0.00,,,0.44,Custom/Perl,2013-04-23 17:00:00,
2013-04-23 12:05:00,32.3,30.7,30.00,WNW,286,8.0,-999.0,92,0.00,,,0.44,Custom/Perl,2013-04-23 17:05:00,
2013-04-23 12:10:00,32.3,30.9,30.00,NW,319,3.0,-999.0,93,0.00,,,0.44,Custom/Perl,2013-04-23 17:10:00,
2013-04-23 12:15:00,32.3,30.9,30.00,NW,316,4.0,-999.0,93,0.00,,,0.44,Custom/Perl,2013-04-23 17:15:00,
2013-04-23 12:20:00,32.3,30.7,30.00,NW,314,4.0,-999.0,92,0.00,,,0.44,Custom/Perl,2013-04-23 17:20:00,
2013-04-23 12:26:00,32.3,30.9,30.00,WSW,247,5.0,-999.0,93,0.00,,,0.44,Custom/Perl,2013-04-23 17:26:00,
2013-04-23 12:31:00,32.2,30.6,30.00,WSW,238,10.0,-999.0,92,0.00,,,0.44,Custom/Perl,2013-04-23 17:31:00,
2013-04-23 12:36:00,32.3,30.7,30.01,NW,309,6.0,-999.0,92,0.00,,,0.44,Custom/Perl,2013-04-23 17:36:00,
2013-04-23 12:41:00,32.3,30.9,30.00,NNE,23,3.0,-999.0,93,0.00,,,0.44,Custom/Perl,2013-04-23 17:41:00,
2013-04-23 12:46:00,32.3,30.9,30.00,NNW,328,5.0,-999.0,93,0.00,,,0.44,Custom/Perl,2013-04-23 17:46:00,
2013-04-23 12:52:00,32.3,30.7,30.01,WNW,301,4.0,-999.0,92,0.00,,,0.44,Custom/Perl,2013-04-23 17:52:00,
2013-04-23 12:57:00,32.3,30.7,30.00,North,6,7.0,-999.0,92,0.00,,,0.44,Custom/Perl,2013-04-23 17:57:00,
2013-04-23 13:02:00,32.3,30.9,30.00,West,272,2.0,-999.0,93,0.00,,,0.44,Custom/Perl,2013-04-23 18:02:00,
2013-04-23 13:07:00,32.3,30.9,30.00,NW,323,5.0,-999.0,93,0.00,,,0.44,Custom/Perl,2013-04-23 18:07:00,
2013-04-23 13:12:00,32.4,30.8,30.00,WNW,303,5.0,-999.0,92,0.00,,,0.44,Custom/Perl,2013-04-23 18:12:00,
2013-04-23 13:18:00,32.4,30.8,30.00,NNW,345,6.0,-999.0,92,0.00,,,0.44,Custom/Perl,2013-04-23 18:18:00,
2013-04-23 13:23:00,32.5,30.9,30.00,West,265,3.0,-999.0,92,0.00,,,0.44,Custom/Perl,2013-04-23 18:23:00,
2013-04-23 13:28:00,32.6,31.0,30.00,NW,319,6.0,-999.0,92,0.00,,,0.44,Custom/Perl,2013-04-23 18:28:00,
2013-04-23 13:33:00,32.6,31.0,30.00,NW,313,4.0,-999.0,92,0.00,,,0.44,Custom/Perl,2013-04-23 18:33:00,
2013-04-23 13:39:00,32.6,31.0,30.00,WNW,288,8.0,-999.0,92,0.00,,,0.44,Custom/Perl,2013-04-23 18:39:00,
2013-04-23 13:44:00,32.7,31.1,30.00,West,281,4.0,-999.0,92,0.00,,,0.44,Custom/Perl,2013-04-23 18:44:00,
2013-04-23 13:49:00,32.7,31.1,30.00,North,356,7.0,-999.0,92,0.00,,,0.44,Custom/Perl,2013-04-23 18:49:00,
2013-04-23 13:54:00,32.8,31.0,30.00,North,1,3.0,-999.0,91,0.00,,,0.44,Custom/Perl,2013-04-23 18:54:00,
2013-04-23 13:59:00,32.9,31.1,30.01,NW,309,5.0,-999.0,91,0.00,,,0.44,Custom/Perl,2013-04-23 18:59:00,
2013-04-23 14:05:00,32.9,31.3,30.01,NW,321,4.0,-999.0,92,0.00,,,0.44,Custom/Perl,2013-04-23 19:05:00,
2013-04-23 14:10:00,32.9,31.3,30.01,NNW,330,7.0,-999.0,92,0.00,,,0.44,Custom/Perl,2013-04-23 19:10:00,
2013-04-23 14:15:00,32.9,31.3,30.01,West,278,3.0,-999.0,92,0.00,,,0.44,Custom/Perl,2013-04-23 19:15:00,
2013-04-23 14:20:00,32.9,31.3,30.01,WNW,303,5.0,-999.0,92,0.00,,,0.44,Custom/Perl,2013-04-23 19:20:00,
2013-04-23 14:26:00,32.8,31.2,30.01,NW,304,5.0,-999.0,92,0.00,,,0.44,Custom/Perl,2013-04-23 19:26:00,
2013-04-23 14:31:00,32.8,31.2,30.01,NNW,334,3.0,-999.0,92,0.00,,,0.44,Custom/Perl,2013-04-23 19:31:00,
2013-04-23 14:36:00,32.9,31.3,30.01,NW,307,3.0,-999.0,92,0.00,,,0.44,Custom/Perl,2013-04-23 19:36:00,
2013-04-23 14:41:00,33.0,31.4,30.01,NW,308,4.0,-999.0,92,0.00,,,0.44,Custom/Perl,2013-04-23 19:41:00,
2013-04-23 14:47:00,33.1,31.5,30.01,NW,308,5.0,-999.0,92,0.00,,,0.44,Custom/Perl,2013-04-23 19:47:00,
2013-04-23 14:52:00,33.2,31.6,30.01,NW,321,6.0,-999.0,92,0.00,,,0.44,Custom/Perl,2013-04-23 19:52:00,
2013-04-23 14:57:00,33.2,31.6,30.01,NNE,18,2.0,-999.0,92,0.00,,,0.44,Custom/Perl,2013-04-23 19:57:00,
2013-04-23 15:02:00,33.3,31.7,30.00,WNW,282,5.0,-999.0,92,0.00,,,0.44,Custom/Perl,2013-04-23 20:02:00,
2013-04-23 15:07:00,33.5,31.9,30.00,NW,313,4.0,-999.0,92,0.00,,,0.44,Custom/Perl,2013-04-23 20:07:00,
2013-04-23 15:13:00,33.6,32.0,30.00,NE,44,4.0,-999.0,92,0.00,,,0.44,Custom/Perl,2013-04-23 20:13:00,
2013-04-23 15:18:00,33.8,32.2,30.00,NW,309,7.0,-999.0,92,0.00,,,0.44,Custom/Perl,2013-04-23 20:18:00,
2013-04-23 15:23:00,33.7,31.9,30.00,NNE,13,5.0,-999.0,91,0.00,,,0.44,Custom/Perl,2013-04-23 20:23:00,
2013-04-23 15:28:00,33.9,31.9,30.00,NW,319,4.0,-999.0,90,0.00,,,0.45,Custom/Perl,2013-04-23 20:28:00,
2013-04-23 15:34:00,34.1,32.3,30.00,NW,308,7.0,-999.0,91,0.00,,,0.45,Custom/Perl,2013-04-23 20:34:00,
2013-04-23 15:39:00,34.3,32.5,30.00,NW,309,10.0,-999.0,91,0.00,,,0.45,Custom/Perl,2013-04-23 20:39:00,
2013-04-23 15:44:00,34.4,32.4,30.00,NNE,26,7.0,-999.0,90,0.00,,,0.45,Custom/Perl,2013-04-23 20:44:00,
2013-04-23 15:49:00,34.5,32.5,30.00,NW,325,4.0,-999.0,90,0.00,,,0.46,Custom/Perl,2013-04-23 20:49:00,
2013-04-23 15:54:00,34.8,32.6,30.00,North,359,6.0,-999.0,89,0.00,,,0.46,Custom/Perl,2013-04-23 20:54:00,
2013-04-23 16:00:00,34.8,32.6,30.00,NW,312,8.0,-999.0,89,0.00,,,0.46,Custom/Perl,2013-04-23 21:00:00,
2013-04-23 16:05:00,34.9,32.9,30.00,North,8,7.0,-999.0,90,0.00,,,0.46,Custom/Perl,2013-04-23 21:05:00,
2013-04-23 16:10:00,34.9,32.5,30.00,ENE,67,2.0,-999.0,88,0.00,,,0.47,Custom/Perl,2013-04-23 21:10:00,
2013-04-23 16:15:00,34.9,32.5,30.00,NW,316,3.0,-999.0,88,0.00,,,0.47,Custom/Perl,2013-04-23 21:15:00,
2013-04-23 16:20:00,35.0,32.8,30.00,WNW,300,3.0,-999.0,89,0.00,,,0.47,Custom/Perl,2013-04-23 21:20:00,
2013-04-23 16:26:00,35.1,32.9,30.00,North,350,11.0,-999.0,89,0.00,,,0.47,Custom/Perl,2013-04-23 21:26:00,
2013-04-23 16:31:00,35.1,32.7,30.00,NNW,347,4.0,-999.0,88,0.00,,,0.47,Custom/Perl,2013-04-23 21:31:00,
2013-04-23 16:36:00,35.2,32.8,30.00,NW,304,4.0,-999.0,88,0.00,,,0.48,Custom/Perl,2013-04-23 21:36:00,
2013-04-23 16:41:00,35.3,33.3,30.01,SE,130,8.0,-999.0,90,0.00,,,0.48,Custom/Perl,2013-04-23 21:41:00,
2013-04-23 16:46:00,35.2,32.8,30.00,NW,325,7.0,-999.0,88,0.00,,,0.48,Custom/Perl,2013-04-23 21:46:00,
2013-04-23 16:52:00,35.2,33.0,30.00,NE,40,8.0,-999.0,89,0.04,,,0.49,Custom/Perl,2013-04-23 21:52:00,
2013-04-23 16:57:00,35.3,33.3,30.00,NW,307,9.0,-999.0,90,0.04,,,0.49,Custom/Perl,2013-04-23 21:57:00,
2013-04-23 17:02:00,35.4,33.2,30.00,NNW,347,6.0,-999.0,89,0.04,,,0.49,Custom/Perl,2013-04-23 22:02:00,
2013-04-23 17:07:00,35.5,33.1,30.00,NNW,339,5.0,-999.0,88,0.00,,,0.50,Custom/Perl,2013-04-23 22:07:00,
2013-04-23 17:12:00,35.6,33.4,30.00,NNE,16,5.0,-999.0,89,0.00,,,0.50,Custom/Perl,2013-04-23 22:12:00,
2013-04-23 17:18:00,35.7,33.1,30.00,NW,310,3.0,-999.0,87,0.00,,,0.50,Custom/Perl,2013-04-23 22:18:00,
2013-04-23 17:23:00,35.8,33.4,30.00,WNW,296,3.0,-999.0,88,0.00,,,0.50,Custom/Perl,2013-04-23 22:23:00,
2013-04-23 17:28:00,35.9,33.5,30.00,North,350,10.0,-999.0,88,0.00,,,0.51,Custom/Perl,2013-04-23 22:28:00,
2013-04-23 17:33:00,36.1,33.7,30.00,NW,311,2.0,-999.0,88,0.00,,,0.51,Custom/Perl,2013-04-23 22:33:00,
2013-04-23 17:38:00,36.3,33.9,30.00,NW,324,3.0,-999.0,88,0.00,,,0.51,Custom/Perl,2013-04-23 22:38:00,
2013-04-23 17:44:00,36.4,33.8,30.00,WSW,248,4.0,-999.0,87,0.00,,,0.51,Custom/Perl,2013-04-23 22:44:00,
2013-04-23 17:49:00,36.4,33.6,30.00,WNW,283,5.0,-999.0,86,0.00,,,0.52,Custom/Perl,2013-04-23 22:49:00,
2013-04-23 17:54:00,36.4,34.0,30.00,NW,323,1.0,-999.0,88,0.00,,,0.52,Custom/Perl,2013-04-23 22:54:00,
2013-04-23 17:59:00,36.5,33.7,30.00,NW,319,5.0,-999.0,86,0.00,,,0.52,Custom/Perl,2013-04-23 22:59:00,
2013-04-23 18:05:00,36.5,33.7,30.00,North,1,6.0,-999.0,86,0.00,,,0.53,Custom/Perl,2013-04-23 23:05:00,
2013-04-23 18:10:00,36.5,33.5,30.00,NW,321,3.0,-999.0,85,0.00,,,0.53,Custom/Perl,2013-04-23 23:10:00,
2013-04-23 18:15:00,36.6,33.6,30.00,NNW,335,7.0,-999.0,85,0.00,,,0.53,Custom/Perl,2013-04-23 23:15:00,
2013-04-23 18:20:00,36.7,33.5,30.00,NW,312,3.0,-999.0,84,0.00,,,0.53,Custom/Perl,2013-04-23 23:20:00,
2013-04-23 18:25:00,36.8,33.8,30.00,WNW,296,4.0,-999.0,85,0.00,,,0.53,Custom/Perl,2013-04-23 23:25:00,
2013-04-23 18:31:00,36.9,33.7,30.00,NW,305,5.0,-999.0,84,0.00,,,0.54,Custom/Perl,2013-04-23 23:31:00,
2013-04-23 18:36:00,37.1,33.7,30.00,NW,323,2.0,-999.0,83,0.00,,,0.54,Custom/Perl,2013-04-23 23:36:00,
2013-04-23 18:41:00,37.2,33.8,30.00,NW,323,5.0,-999.0,83,0.00,,,0.54,Custom/Perl,2013-04-23 23:41:00,
2013-04-23 18:46:00,37.3,33.7,30.00,North,353,6.0,-999.0,82,0.00,,,0.54,Custom/Perl,2013-04-23 23:46:00,
2013-04-23 18:51:00,37.3,33.5,30.01,NNW,333,2.0,-999.0,81,0.00,,,0.54,Custom/Perl,2013-04-23 23:51:00,
2013-04-23 18:57:00,37.3,33.7,30.01,NW,314,6.0,-999.0,82,0.00,,,0.55,Custom/Perl,2013-04-23 23:57:00,
2013-04-23 19:02:00,37.4,33.4,30.01,WNW,300,7.0,-999.0,80,0.00,,,0.55,Custom/Perl,2013-04-24 00:02:00,
2013-04-23 19:07:00,37.4,33.4,30.01,NW,321,5.0,-999.0,80,0.00,,,0.55,Custom/Perl,2013-04-24 00:07:00,
2013-04-23 19:12:00,37.4,33.2,30.01,NNW,335,6.0,-999.0,79,0.00,,,0.55,Custom/Perl,2013-04-24 00:12:00,
2013-04-23 19:18:00,37.4,33.6,30.01,North,4,3.0,-999.0,81,0.00,,,0.55,Custom/Perl,2013-04-24 00:18:00,
2013-04-23 19:23:00,37.4,33.4,30.01,NNW,329,3.0,-999.0,80,0.00,,,0.55,Custom/Perl,2013-04-24 00:23:00,
2013-04-23 19:28:00,37.4,33.6,30.01,NW,311,1.0,-999.0,81,0.00,,,0.56,Custom/Perl,2013-04-24 00:28:00,
2013-04-23 19:33:00,37.4,33.6,30.01,NW,314,1.0,-999.0,81,0.00,,,0.56,Custom/Perl,2013-04-24 00:33:00,
2013-04-23 19:38:00,37.3,33.5,30.01,NNW,336,3.0,-999.0,81,0.00,,,0.56,Custom/Perl,2013-04-24 00:38:00,
2013-04-23 19:44:00,37.3,33.7,30.01,NNW,346,4.0,-999.0,82,0.00,,,0.56,Custom/Perl,2013-04-24 00:44:00,
2013-04-23 19:49:00,37.3,33.5,30.02,NW,306,2.0,-999.0,81,0.00,,,0.56,Custom/Perl,2013-04-24 00:49:00,
2013-04-23 19:54:00,37.4,33.6,30.02,NNW,346,3.0,-999.0,81,0.00,,,0.56,Custom/Perl,2013-04-24 00:54:00,
2013-04-23 19:59:00,37.3,33.5,30.02,NW,324,2.0,-999.0,81,0.00,,,0.56,Custom/Perl,2013-04-24 00:59:00,
2013-04-23 20:04:00,37.3,33.5,30.01,North,349,5.0,-999.0,81,0.00,,,0.56,Custom/Perl,2013-04-24 01:04:00,
2013-04-23 20:10:00,37.3,33.5,30.02,West,271,0.0,-999.0,81,0.00,,,0.56,Custom/Perl,2013-04-24 01:10:00,
2013-04-23 20:15:00,37.2,33.6,30.02,North,354,1.0,-999.0,82,0.00,,,0.57,Custom/Perl,2013-04-24 01:15:00,
2013-04-23 20:20:00,37.2,33.6,30.02,NW,314,1.0,-999.0,82,0.00,,,0.57,Custom/Perl,2013-04-24 01:20:00,
2013-04-23 20:25:00,37.1,33.5,30.02,NW,321,3.0,-999.0,82,0.00,,,0.57,Custom/Perl,2013-04-24 01:25:00,
2013-04-23 20:31:00,37.2,33.4,30.02,WNW,293,1.0,-999.0,81,0.00,,,0.57,Custom/Perl,2013-04-24 01:31:00,
2013-04-23 20:36:00,37.1,33.5,30.03,NW,325,3.0,-999.0,82,0.00,,,0.57,Custom/Perl,2013-04-24 01:36:00,
2013-04-23 20:41:00,37.1,33.5,30.03,North,11,4.0,-999.0,82,0.00,,,0.57,Custom/Perl,2013-04-24 01:41:00,
2013-04-23 20:46:00,37.1,33.5,30.03,WNW,302,2.0,-999.0,82,0.00,,,0.57,Custom/Perl,2013-04-24 01:46:00,
2013-04-23 20:51:00,37.1,33.5,30.04,North,357,3.0,-999.0,82,0.00,,,0.57,Custom/Perl,2013-04-24 01:51:00,
2013-04-23 20:57:00,37.3,33.7,30.04,NW,313,3.0,-999.0,82,0.00,,,0.57,Custom/Perl,2013-04-24 01:57:00,
2013-04-23 21:02:00,37.3,33.5,30.04,WNW,295,1.0,-999.0,81,0.00,,,0.57,Custom/Perl,2013-04-24 02:02:00,
2013-04-23 21:07:00,37.4,33.4,30.04,NNW,332,3.0,-999.0,80,0.00,,,0.57,Custom/Perl,2013-04-24 02:07:00,
2013-04-23 21:12:00,37.6,33.4,30.05,NNW,338,4.0,-999.0,79,0.00,,,0.57,Custom/Perl,2013-04-24 02:12:00,
2013-04-23 21:20:00,37.7,33.3,30.05,NNW,335,4.0,-999.0,78,0.00,,,0.58,Custom/Perl,2013-04-24 02:20:00,
2013-04-23 21:25:00,37.7,33.5,30.05,NW,306,5.0,-999.0,79,0.00,,,0.58,Custom/Perl,2013-04-24 02:25:00,
2013-04-23 21:31:00,37.7,33.5,30.05,NNW,329,2.0,-999.0,79,0.00,,,0.58,Custom/Perl,2013-04-24 02:31:00,
2013-04-23 21:36:00,37.7,33.5,30.06,NW,307,4.0,-999.0,79,0.00,,,0.58,Custom/Perl,2013-04-24 02:36:00,
2013-04-23 21:41:00,37.6,33.6,30.07,NNW,328,6.0,-999.0,80,0.00,,,0.58,Custom/Perl,2013-04-24 02:41:00,
2013-04-23 21:47:00,36.6,33.2,30.08,NW,321,8.0,-999.0,83,0.00,,,0.58,Custom/Perl,2013-04-24 02:47:00,
2013-04-23 21:52:00,35.9,32.9,30.08,NW,320,4.0,-999.0,85,0.00,,,0.58,Custom/Perl,2013-04-24 02:52:00,
2013-04-23 21:57:00,35.7,33.1,30.09,NNE,15,3.0,-999.0,87,0.00,,,0.58,Custom/Perl,2013-04-24 02:57:00,
2013-04-23 22:03:00,35.6,33.2,30.09,NW,320,2.0,-999.0,88,0.00,,,0.58,Custom/Perl,2013-04-24 03:03:00,
2013-04-23 22:09:00,35.6,33.2,30.09,NNW,333,4.0,-999.0,88,0.00,,,0.59,Custom/Perl,2013-04-24 03:09:00,
2013-04-23 22:14:00,35.5,32.7,30.09,North,358,6.0,-999.0,86,0.00,,,0.59,Custom/Perl,2013-04-24 03:14:00,
2013-04-23 22:20:00,35.4,32.6,30.09,WNW,293,6.0,-999.0,86,0.00,,,0.59,Custom/Perl,2013-04-24 03:20:00,
2013-04-23 22:25:00,35.1,32.5,30.09,NW,309,4.0,-999.0,87,0.00,,,0.59,Custom/Perl,2013-04-24 03:25:00,
2013-04-23 22:32:00,34.8,32.4,30.09,NW,305,5.0,-999.0,88,0.00,,,0.59,Custom/Perl,2013-04-24 03:32:00,
2013-04-23 22:37:00,34.7,32.5,30.10,NW,323,2.0,-999.0,89,0.00,,,0.59,Custom/Perl,2013-04-24 03:37:00,
2013-04-23 22:42:00,34.4,32.4,30.10,NE,44,3.0,-999.0,90,0.00,,,0.59,Custom/Perl,2013-04-24 03:42:00,
2013-04-23 22:48:00,33.9,32.1,30.10,NW,309,0.0,-999.0,91,0.00,,,0.59,Custom/Perl,2013-04-24 03:48:00,
2013-04-23 22:53:00,33.6,32.0,30.10,NW,324,0.0,-999.0,92,0.00,,,0.59,Custom/Perl,2013-04-24 03:53:00,
2013-04-23 22:59:00,33.5,32.1,30.10,NW,324,0.0,-999.0,93,0.00,,,0.59,Custom/Perl,2013-04-24 03:59:00,
2013-04-23 23:01:00,33.4,32.0,30.10,NNW,336,0.0,-999.0,93,0.00,,,0.59,Custom/Perl,2013-04-24 04:01:00,
2013-04-23 23:02:00,33.4,32.0,30.10,West,271,0.0,-999.0,93,0.00,,,0.59,Custom/Perl,2013-04-24 04:02:00,
2013-04-23 23:03:00,33.4,32.0,30.10,West,274,0.0,-999.0,93,0.00,,,0.59,Custom/Perl,2013-04-24 04:03:00,
2013-04-23 23:04:00,33.3,31.9,30.09,West,274,0.0,-999.0,93,0.00,,,0.59,Custom/Perl,2013-04-24 04:04:00,
2013-04-23 23:10:00,33.3,31.9,30.09,NNW,331,0.0,-999.0,93,0.00,,,0.59,Custom/Perl,2013-04-24 04:10:00,
2013-04-23 23:15:00,33.1,31.9,30.10,WNW,302,0.0,-999.0,94,0.00,,,0.59,Custom/Perl,2013-04-24 04:15:00,
2013-04-23 23:20:00,33.0,31.8,30.10,WNW,302,0.0,-999.0,94,0.00,,,0.59,Custom/Perl,2013-04-24 04:20:00,
2013-04-23 23:25:00,32.9,31.7,30.10,WNW,283,0.0,-999.0,94,0.00,,,0.59,Custom/Perl,2013-04-24 04:25:00,
2013-04-23 23:30:00,32.9,31.7,30.10,WSW,257,0.0,-999.0,94,0.00,,,0.60,Custom/Perl,2013-04-24 04:30:00,
2013-04-23 23:36:00,33.0,32.0,30.10,West,274,0.0,-999.0,95,0.00,,,0.60,Custom/Perl,2013-04-24 04:36:00,
2013-04-23 23:41:00,33.0,32.0,30.10,West,274,0.0,-999.0,95,0.00,,,0.60,Custom/Perl,2013-04-24 04:41:00,
2013-04-23 23:46:00,33.1,32.1,30.09,West,281,0.0,-999.0,95,0.00,,,0.60,Custom/Perl,2013-04-24 04:46:00,
2013-04-23 23:51:00,33.1,31.9,30.09,West,281,0.0,-999.0,94,0.00,,,0.60,Custom/Perl,2013-04-24 04:51:00,
2013-04-23 23:56:00,33.2,32.0,30.09,West,281,0.0,-999.0,94,0.00,,,0.60,Custom/Perl,2013-04-24 04:56:00,